Location: Newark
(50.0306°N, 2.3272°E)
Time: 05:58:27
(UTC+00:00)

A-11 Canister half - Pass Details

Date: 15 December 2019
Orbit: 1525 x 1684 km, 47.3° (Epoch: 28 January)

Event Time Altitude Azimuth Distance (km) Brightness Sun altitude
Rises 11:29:47 0° 289° (WNW) 4,938 11.4 16.6°
Reaches altitude 10° 11:33:32 10° 279° (W) 3,937 11.1 16.7°
Maximum altitude 11:41:34 28° 226° (SW) 2,719 11.1 16.7°
Drops below altitude 10° 11:49:26 10° 172° (S) 3,842 13.4 16.7°
Sets 11:53:04 0° 161° (SSE) 4,800 12.9 16.7°
